Location: Sawmill Trailhead
(33.5800°N, 116.4497°W)
Time: 14:16:53
(UTC-08:00)

Uosat F - Visible Passes

Search period start: 10 December 2016 00:00
Search period end: 20 December 2016 00:00
Orbit: 750 x 761 km, 98.8° (Epoch: 09 December)

Date Brightness Start Highest point End Pass type
(mag) Time Alt. Az. Time Alt. Az. Time Alt. Az.
10 Dec 13.2 05:25:49 10° NE 05:30:10 29° E 05:34:28 10° SSE visible
10 Dec 13.2 18:13:50 10° SSW 18:18:05 27° W 18:22:21 10° NW visible
11 Dec 14.4 04:49:15 10° ENE 04:50:24 11° E 04:51:34 10° ESE visible
11 Dec 11.3 17:33:31 10° S 17:38:32 73° WSW 17:43:33 10° NNW visible
12 Dec 12.2 05:45:16 10° NNE 05:50:05 47° E 05:54:53 10° S visible
12 Dec 13.9 18:34:48 10° SW 18:38:04 17° W 18:41:20 10° NW visible
13 Dec 14.0 05:07:03 10° NE 05:10:26 18° E 05:13:49 10° SE visible
13 Dec 12.3 17:53:37 10° S 17:58:25 45° W 18:03:13 10° NNW visible
14 Dec 11.3 06:04:57 10° NNE 06:09:57 77° ESE 06:14:57 10° S visible
14 Dec 11.0 17:13:58 10° SSE 17:18:57 70° ENE 17:23:58 10° N visible
14 Dec 14.5 18:57:43 10° W 18:58:06 10° W 18:58:29 10° W visible
15 Dec 13.2 05:26:05 10° NE 05:30:25 29° E 05:34:43 10° SSE visible
15 Dec 13.2 18:14:04 10° SSW 18:18:20 28° W 18:22:38 10° NW visible
16 Dec 14.5 04:49:38 10° E 04:50:39 11° E 04:51:42 10° ESE visible
16 Dec 11.3 17:33:47 10° S 17:38:47 74° WSW 17:43:49 10° NNW visible
17 Dec 12.3 05:45:31 10° NNE 05:50:20 46° E 05:55:08 10° S visible
17 Dec 13.9 18:35:03 10° SW 18:38:19 17° W 18:41:37 10° NW visible
18 Dec 14.0 05:07:20 10° NE 05:10:42 18° E 05:14:02 10° SE visible
18 Dec 12.3 17:53:53 10° S 17:58:40 45° W 18:03:29 10° NNW visible
19 Dec 11.3 06:05:12 10° NNE 06:10:13 76° ESE 06:15:13 10° S visible
19 Dec 11.0 17:14:15 10° SSE 17:19:13 69° ENE 17:24:13 10° N visible
19 Dec 14.4 18:57:44 10° W 18:58:21 10° W 18:58:59 10° W visible
